Retour au catalogue

NOAA 16 DEB

ActifSSO
NORAD 41217·DEBRIS·🇺🇸 United States

Lancé Sep 21, 2000 depuis Vandenberg Space Force Base

Loading…

Prochains Passages (prochaines 24 heures)

TLE

FraisSource: Space-Track

Époque: Sep 12, 2026, 07:04 UTC

1 41217U 00055DW  26255.29512862  .00001927  00000-0  92997-3 0  9998
2 41217  98.6862 281.9339 0038277  16.6765 343.5660 14.19400796551738

Suivez NOAA 16 DEB en temps réel avec AllMySat

Download on the App Store